Location: Unspecified
(35.6961°N, 0.0000°E)
Time: 07:42:06
(UTC+00:00)

Explorer 11/Cluster Stage 4 - Pass Details

Date: 27 May 2019
Orbit: 467 x 1260 km, 28.8° (Epoch: 25 June)

Event Time Altitude Azimuth Distance (km) Brightness Sun altitude
Rises 06:30:48 0° 258° (WSW) 2,847 8.8 18.8°
Reaches altitude 10° 06:34:48 10° 224° (SW) 1,781 8.0 19.6°
Maximum altitude 06:36:02 11° 206° (SSW) 1,666 8.0 19.8°
Drops below altitude 10° 06:37:13 10° 188° (S) 1,703 8.2 20.1°
Sets 06:40:46 0° 151° (SSE) 2,502 9.4 20.8°
